When you browse on this site, cookies collect data to enhance your experience and personalize the content and advertising you see.
Visit our Privacy Policy to learn more. By continuing to use the site, you agree to this use of cookies and data.
  • In Sweden
  • List of Countries
  • For 7 days
  • Water Temperature
  • Satellite Maps
  • Weather Map
  • Weather Widgets
  • user-avatar
    Login

    Hourly Weather Shiderty

    Today, 22 April, Monday

    Time Temperature Precipitation Wind Pressure Humidity
    00:00 +1°C° 0 mm 0 mps 745 mmHg 71%
    01:00 +1°C° 0 mm 0 mps 745 mmHg 71%
    02:00 +1°C° 0 mm 0 mps 745 mmHg 72%
    03:00 +1°C° 0 mm 0 mps 745 mmHg 71%
    04:00 +2°C° 0 mm 0 mps 745 mmHg 71%
    05:00 +2°C° 0 mm 0 mps 745 mmHg 71%
    06:00 +3°C° 0 mm 0 mps 745 mmHg 65%
    07:00 +4°C° 0 mm 0 mps 745 mmHg 59%
    08:00 +7°C° 0 mm 1 mps 746 mmHg 53%
    09:00 +6°C° 0 mm 0 mps 746 mmHg 49%
    10:00 +7°C° 0 mm 0 mps 745 mmHg 45%
    11:00 +8°C° 0 mm 0 mps 745 mmHg 41%
    12:00 +8°C° 0 mm 0 mps 745 mmHg 40%
    13:00 +8°C° 0 mm 0 mps 745 mmHg 39%
    14:00 +9°C° 0 mm 0 mps 745 mmHg 39%
    15:00 +10°C° 0 mm 1 mps 745 mmHg 39%
    16:00 +10°C° 0 mm 1 mps 745 mmHg 39%
    17:00 +10°C° 0 mm 1 mps 745 mmHg 39%
    18:00 +9°C° 0 mm 1 mps 745 mmHg 43%
    19:00 +8°C° 0 mm 2 mps 745 mmHg 46%
    20:00 +7°C° 0 mm 2 mps 745 mmHg 50%
    21:00 +7°C° 0 mm 2 mps 745 mmHg 52%
    22:00 +6°C° 0 mm 2 mps 744 mmHg 54%
    23:00 +5°C° 0 mm 2 mps 744 mmHg 56%

    Tomorrow, 23 April, Tuesday

    Time Temperature Precipitation Wind Pressure Humidity
    00:00 +5°C° 0 mm 2 mps 744 mmHg 58%
    01:00 +4°C° 0 mm 2 mps 744 mmHg 59%
    02:00 +4°C° 0 mm 2 mps 744 mmHg 61%
    03:00 +3°C° 0 mm 2 mps 743 mmHg 61%
    04:00 +3°C° 0 mm 2 mps 743 mmHg 62%
    05:00 +3°C° 0 mm 2 mps 743 mmHg 63%
    06:00 +4°C° 0 mm 2 mps 743 mmHg 59%
    07:00 +6°C° 0 mm 2 mps 743 mmHg 54%
    08:00 +7°C° 0 mm 3 mps 743 mmHg 50%
    09:00 +8°C° 0 mm 3 mps 743 mmHg 46%
    10:00 +9°C° 0 mm 2 mps 742 mmHg 43%
    11:00 +10°C° 0 mm 2 mps 742 mmHg 39%
    12:00 +12°C° 0 mm 2 mps 742 mmHg 39%
    13:00 +12°C° 0 mm 1 mps 741 mmHg 38%
    14:00 +12°C° 0 mm 1 mps 741 mmHg 38%
    15:00 +12°C° 0 mm 1 mps 740 mmHg 37%
    16:00 +13°C° 0 mm 2 mps 740 mmHg 36%
    17:00 +12°C° 0 mm 3 mps 740 mmHg 35%
    18:00 +12°C° 0 mm 2 mps 740 mmHg 39%
    19:00 +9°C° 0 mm 2 mps 740 mmHg 43%
    20:00 +9°C° 0 mm 1 mps 740 mmHg 47%
    21:00 +8°C° 0 mm 2 mps 740 mmHg 49%
    22:00 +7°C° 0 mm 2 mps 740 mmHg 51%
    23:00 +7°C° 0 mm 3 mps 740 mmHg 53%

    Day after tomorrow, 24 April, Wednesday

    Time Temperature Precipitation Wind Pressure Humidity
    00:00 +7°C° 0 mm 3 mps 740 mmHg 57%
    01:00 +5°C° 0 mm 3 mps 740 mmHg 60%
    02:00 +5°C° 0 mm 3 mps 739 mmHg 64%
    03:00 +5°C° 0 mm 4 mps 739 mmHg 65%
    04:00 +4°C° 0 mm 4 mps 740 mmHg 65%
    05:00 +4°C° 0 mm 4 mps 740 mmHg 66%
    06:00 +6°C° 0 mm 4 mps 740 mmHg 61%
    07:00 +8°C° 0 mm 5 mps 740 mmHg 55%
    08:00 +9°C° 0 mm 5 mps 740 mmHg 50%
    09:00 +12°C° 0 mm 5 mps 740 mmHg 45%
    10:00 +13°C° 0 mm 5 mps 740 mmHg 41%
    11:00 +15°C° 0 mm 5 mps 740 mmHg 37%
    12:00 +15°C° 0 mm 5 mps 739 mmHg 36%
    13:00 +15°C° 0 mm 5 mps 739 mmHg 35%
    14:00 +15°C° 0 mm 5 mps 738 mmHg 34%
    15:00 +15°C° 0 mm 5 mps 738 mmHg 35%
    16:00 +15°C° 0 mm 4 mps 738 mmHg 35%
    17:00 +15°C° 0 mm 4 mps 738 mmHg 35%
    18:00 +14°C° 0 mm 4 mps 738 mmHg 39%
    19:00 +13°C° 0 mm 3 mps 738 mmHg 43%
    20:00 +11°C° 0 mm 3 mps 737 mmHg 46%
    21:00 +11°C° 0 mm 3 mps 737 mmHg 47%
    22:00 +10°C° 0 mm 3 mps 737 mmHg 48%
    23:00 +10°C° 0 mm 3 mps 737 mmHg 49%

    25 April, Thursday

    Time Temperature Precipitation Wind Pressure Humidity
    00:00 +9°C° 0 mm 3 mps 736 mmHg 51%
    01:00 +8°C° 0 mm 4 mps 736 mmHg 52%
    02:00 +7°C° 0 mm 4 mps 736 mmHg 53%
    03:00 +7°C° 0 mm 4 mps 736 mmHg 55%
    04:00 +7°C° 0 mm 5 mps 735 mmHg 57%
    05:00 +6°C° 0 mm 5 mps 735 mmHg 59%
    06:00 +8°C° 0 mm 6 mps 735 mmHg 56%
    07:00 +9°C° 0 mm 7 mps 735 mmHg 54%
    08:00 +10°C° 0 mm 8 mps 735 mmHg 52%
    09:00 +11°C° 0.2 mm 9 mps 735 mmHg 50%
    10:00 +12°C° 0.2 mm 9 mps 735 mmHg 49%
    11:00 +13°C° 0.2 mm 10 mps 735 mmHg 47%
    12:00 +12°C° 0.2 mm 10 mps 735 mmHg 47%
    13:00 +12°C° 0.2 mm 9 mps 735 mmHg 48%
    14:00 +12°C° 0.2 mm 9 mps 735 mmHg 48%
    15:00 +12°C° 0 mm 9 mps 735 mmHg 47%
    16:00 +12°C° 0 mm 8 mps 736 mmHg 46%
    17:00 +12°C° 0 mm 7 mps 736 mmHg 44%
    18:00 +11°C° 0 mm 6 mps 736 mmHg 47%
    19:00 +11°C° 0 mm 4 mps 736 mmHg 50%
    20:00 +10°C° 0 mm 3 mps 737 mmHg 52%
    21:00 +10°C° 0 mm 3 mps 737 mmHg 57%
    22:00 +8°C° 0 mm 4 mps 737 mmHg 61%
    23:00 +8°C° 0 mm 5 mps 736 mmHg 65%

    26 April, Friday

    Time Temperature Precipitation Wind Pressure Humidity
    00:00 +8°C° 0.5 mm 5 mps 736 mmHg 67%
    01:00 +8°C° 0.5 mm 6 mps 735 mmHg 69%
    02:00 +8°C° 0.5 mm 6 mps 735 mmHg 72%
    03:00 +8°C° 0.1 mm 7 mps 735 mmHg 71%
    04:00 +8°C° 0.1 mm 7 mps 734 mmHg 71%
    05:00 +7°C° 0.1 mm 8 mps 734 mmHg 71%
    06:00 +7°C° 0.9 mm 8 mps 734 mmHg 72%
    07:00 +7°C° 0.9 mm 9 mps 734 mmHg 72%
    08:00 +7°C° 0.9 mm 10 mps 734 mmHg 73%
    09:00 +6°C° 0.3 mm 8 mps 735 mmHg 75%
    10:00 +5°C° 0.3 mm 7 mps 735 mmHg 76%
    11:00 +5°C° 0.3 mm 6 mps 735 mmHg 78%
    12:00 +6°C° 0.4 mm 5 mps 736 mmHg 74%
    13:00 +5°C° 0.4 mm 5 mps 736 mmHg 71%
    14:00 +5°C° 0.4 mm 5 mps 736 mmHg 68%
    15:00 +5°C° 0.2 mm 4 mps 736 mmHg 68%
    16:00 +5°C° 0.2 mm 4 mps 737 mmHg 68%
    17:00 +5°C° 0.2 mm 4 mps 737 mmHg 69%
    18:00 +4°C° 0.1 mm 4 mps 737 mmHg 70%
    19:00 +4°C° 0.1 mm 4 mps 738 mmHg 71%
    20:00 +3°C° 0.1 mm 3 mps 738 mmHg 72%
    21:00 +2°C° 0 mm 3 mps 738 mmHg 75%
    22:00 +3°C° 0 mm 2 mps 739 mmHg 77%
    23:00 +2°C° 0 mm 2 mps 739 mmHg 80%

    27 April, Saturday

    Time Temperature Precipitation Wind Pressure Humidity
    00:00 +2°C° 0 mm 1 mps 739 mmHg 82%
    01:00 +2°C° 0 mm 1 mps 740 mmHg 84%
    02:00 0°C° 0 mm 0 mps 740 mmHg 86%
    03:00 +1°C° 0 mm 1 mps 740 mmHg 85%
    04:00 +1°C° 0 mm 1 mps 740 mmHg 83%
    05:00 +1°C° 0 mm 1 mps 741 mmHg 82%
    06:00 +2°C° 0 mm 2 mps 741 mmHg 77%
    07:00 +3°C° 0 mm 2 mps 741 mmHg 71%
    08:00 +4°C° 0 mm 3 mps 741 mmHg 65%
    09:00 +6°C° 0 mm 2 mps 742 mmHg 59%
    10:00 +7°C° 0 mm 2 mps 742 mmHg 52%
    11:00 +8°C° 0 mm 2 mps 742 mmHg 46%
    12:00 +9°C° 0 mm 2 mps 742 mmHg 43%
    13:00 +10°C° 0 mm 3 mps 742 mmHg 40%
    14:00 +11°C° 0 mm 3 mps 742 mmHg 37%
    15:00 +11°C° 0 mm 4 mps 742 mmHg 39%
    16:00 +11°C° 0 mm 4 mps 742 mmHg 41%
    17:00 +10°C° 0 mm 5 mps 742 mmHg 43%
    18:00 +8°C° 0 mm 5 mps 743 mmHg 50%
    19:00 +7°C° 0 mm 5 mps 743 mmHg 56%
    20:00 +5°C° 0 mm 6 mps 743 mmHg 63%
    21:00 +4°C° 0 mm 6 mps 743 mmHg 62%
    22:00 +4°C° 0 mm 6 mps 744 mmHg 62%
    23:00 +3°C° 0 mm 7 mps 744 mmHg 61%
    Show more